MDT,Max TemperatureF,Mean TemperatureF,Min TemperatureF,Max Dew PointF,MeanDew PointF,Min DewpointF,Max Humidity, Mean Humidity, Min Humidity, Max Sea Level PressureIn, Mean Sea Level PressureIn, Min Sea Level PressureIn, Max VisibilityMiles, Mean VisibilityMiles, Min VisibilityMiles, Max Wind SpeedMPH, Mean Wind SpeedMPH, Max Gust SpeedMPH,PrecipitationIn, CloudCover, Events, WindDirDegrees
2012-10-1,75,57,38,37,33,29,79,49,19,30.32,30.19,30.04,10,10,10,13,5,16,0.00,0,,169
2012-10-2,79,58,36,35,30,22,76,44,12,30.04,29.90,29.77,10,10,10,26,11,33,0.00,0,,203
2012-10-3,56,45,33,32,22,12,62,41,19,30.29,30.07,29.78,10,10,10,22,10,29,0.00,0,,8
2012-10-4,55,40,25,22,19,15,75,48,20,30.29,30.20,30.11,10,10,10,16,5,21,0.00,0,,42
2012-10-5,53,40,26,20,15,7,69,43,17,30.32,30.25,30.18,10,10,10,14,6,21,0.00,0,,34
2012-10-6,53,38,22,16,8,-8,71,40,9,30.41,30.30,30.20,10,10,10,13,4,18,0.00,0,,53
2012-10-7,56,39,22,20,15,8,68,44,20,30.31,30.21,30.12,10,10,9,12,4,20,0.00,0,,107
2012-10-8,63,43,22,21,16,11,77,45,13,30.14,30.03,29.91,10,10,9,16,5,21,0.00,0,,99
2012-10-9,63,45,26,28,21,16,63,42,20,30.14,30.06,29.97,10,10,9,7,2,9,0.00,0,,45
2012-10-10,69,49,28,27,22,16,78,46,13,30.12,30.01,29.90,10,10,10,14,4,18,0.00,0,,39
2012-10-11,71,56,40,32,26,23,59,38,16,30.06,29.95,29.87,10,10,10,12,4,15,0.00,1,,15
2012-10-12,73,55,37,38,31,25,64,43,22,29.95,29.84,29.74,10,10,10,14,5,21,0.00,1,,169
2012-10-13,63,53,43,43,40,34,77,56,34,30.23,30.04,29.82,10,10,10,17,9,23,0.00,3,,212
2012-10-14,63,48,33,39,36,31,92,63,34,30.37,30.24,30.08,10,10,10,18,8,24,0.00,1,,195
2012-10-15,68,54,39,40,37,33,79,56,32,30.06,29.98,29.90,10,10,10,25,10,33,T,3,,185
2012-10-16,63,51,39,49,37,14,89,52,14,29.94,29.73,29.57,10,10,5,31,13,41,0.23,4,Rain-Thunderstorm,229
2012-10-17,50,39,28,24,21,15,69,49,29,30.27,30.15,29.96,10,10,10,25,11,30,0.00,0,,200
2012-10-18,54,39,23,24,21,19,88,57,26,30.42,30.33,30.26,10,10,10,12,3,16,0.00,0,,132
2012-10-19,55,42,28,33,26,22,85,57,29,30.24,30.06,29.80,10,10,10,13,4,20,T,4,,53
2012-10-20,59,51,43,39,33,26,65,49,33,29.81,29.69,29.62,10,10,10,32,16,44,0.00,4,,212
2012-10-21,54,46,38,33,29,25,65,50,35,29.82,29.78,29.71,10,10,10,14,8,20,0.00,4,,195
2012-10-22,47,43,39,41,37,28,93,77,60,29.79,29.69,29.63,10,8,2,16,5,22,0.39,7,Rain,196
2012-10-23,44,38,31,36,30,25,82,68,53,29.98,29.85,29.72,10,9,1,26,11,33,0.03,4,Snow,202
2012-10-24,42,33,23,27,23,17,92,66,40,30.14,30.07,29.97,10,10,10,12,3,15,T,0,,206
2012-10-25,34,31,27,30,28,23,100,89,78,30.44,30.21,30.07,10,4,0,13,5,15,0.61,7,Fog-Snow,232
2012-10-26,33,30,27,30,27,24,100,86,72,30.52,30.33,30.16,10,6,1,13,5,17,0.14,8,Snow,226
2012-10-27,36,31,25,32,28,23,100,91,82,30.25,30.17,30.11,10,6,0,10,2,13,T,7,Fog-Snow,36
2012-10-28,40,37,34,37,34,30,96,88,79,30.18,30.14,30.09,10,10,9,9,3,12,T,7,Rain,45
2012-10-29,63,49,34,42,37,34,100,72,43,30.17,30.13,30.05,10,10,9,20,6,28,0.00,1,,143
2012-10-30,61,48,35,40,35,30,92,67,41,30.21,30.14,30.07,10,10,9,14,5,18,0.00,1,,199
2012-10-31,64,49,33,42,34,30,89,62,34,30.17,30.09,29.95,10,10,10,8,3,10,0.00,0,,35